Flag for Canada Weather past 2 weeks in Belleville, Ontario, Canada

Now
57 °F

Passing clouds.


Feels Like: 54 °F
Forecast: 45 / 64 °F
Wind: 13 mph from Southwest

Location: Trenton

Current Time: Apr 28, 2015 at 12:48:18 PM

Latest Report: Apr 28, 2015 at 12:00 PM


Visibility: 15 mi

Pressure: 29.94 "Hg

Humidity: 63%

Dew point: 45 °F

Location of BellevilleLocation

Historic Weather in Belleville — Graph

°F

Belleville temperature yesterday

Maximum temperature yesterday: 55 °F (at 5:00 PM)
Minimum temperature yesterday: 41 °F (at 5:00 AM)
Average temperature yesterday: 48 °F

Past Weeks' High & Low Weather Summary

 TemperatureHumidityPressure
High72 °F (Apr 13, 6:00 PM)100% (Apr 17, 2:00 AM)30.44 "Hg (Apr 17, 2:00 AM)
Low28 °F (Apr 25, 4:00 AM)19% (Apr 14, 1:00 PM)29.44 "Hg (Apr 20, 7:00 PM)
Average47 °F64%29.92 "Hg
* Reported Apr 13 12:00 Noon — Apr 28 12:00 Noon, Belleville, Weather by CustomWeather, © 2015

Note: Actual official high and low records may vary slightly from our data, if they occured in-between our weather recording intervals... More about our weather records

Advertising

Belleville weather history for previous 24 hours

 ConditionsComfort  
Time TempWeatherWind HumidityBarometerVisibility
12:00 PM
Tue, Apr 28
57 °FPassing clouds.13 mph63%29.94 "Hg15 mi
11:00 AM59 °FPassing clouds.8 mph55%29.95 "Hg15 mi
10:00 AM57 °FPassing clouds.7 mph59%29.96 "Hg15 mi
9:00 AM52 °FPassing clouds.8 mph67%29.97 "Hg15 mi
8:00 AM48 °FPassing clouds.10 mph71%29.96 "Hg15 mi
7:00 AM45 °FPassing clouds.9 mph81%29.95 "Hg15 mi
6:00 AM43 °FPassing clouds.7 mph87%29.94 "Hg15 mi
5:00 AM45 °FPassing clouds.7 mph81%29.93 "Hg15 mi
4:00 AM45 °FPassing clouds.8 mph81%29.93 "Hg15 mi
3:00 AM46 °FPassing clouds.10 mph76%29.93 "Hg15 mi
2:00 AM46 °FPassing clouds.13 mph71%29.93 "Hg15 mi
1:00 AM46 °FPassing clouds.10 mph71%29.93 "Hg15 mi
12:00 AM46 °FPassing clouds.10 mph71%29.93 "Hg15 mi
11:00 PM
Mon, Apr 27
48 °FPassing clouds.8 mph66%29.93 "Hg15 mi
10:00 PM52 °FPassing clouds.13 mph58%29.92 "Hg15 mi
9:00 PM54 °FPartly sunny.10 mph54%29.90 "Hg15 mi
8:00 PM55 °FPartly sunny.10 mph51%29.88 "Hg15 mi
7:00 PM55 °FPartly sunny.10 mph51%29.87 "Hg15 mi
6:00 PM55 °FPartly sunny.7 mph55%29.86 "Hg15 mi
5:00 PM55 °FOvercast.12 mph51%29.84 "Hg15 mi
4:00 PM54 °FSprinkles. Overcast.12 mph58%29.83 "Hg12 mi
3:00 PM54 °FPartly sunny.7 mph54%29.83 "Hg15 mi
2:00 PM54 °FOvercast.8 mph58%29.83 "Hg15 mi
1:00 PM50 °FOvercast.9 mph67%29.83 "Hg15 mi
12:00 PM50 °FOvercast.8 mph67%29.82 "Hg15 mi
Weather by CustomWeather, © 2015

See weather overviewHow to use our weather pages